STARLINK-32532 (62156 NORAD) Tracking and Keplerian Element Data

This shows tracking and keplerian element data for the satellite.

Feedback or suggestion? Click here.




ElementValue
Catalog62156
NameSTARLINK-32532
Epoch Orbit1125
Epoch Day35.0189596
Epoch Year2025
RAAN256.9215
Inclination42.9998
Eccentricity9.46E-05
Argument of Perigee251.0719
Mean Anonmoly109.0032
Mean Motion15.32048247
Decay Rate0.00011159
L11 62156U 24224T 25035.01895960 .00011159 00000+0 36133-3 0 9992
L22 62156 42.9998 256.9215 0000946 251.0719 109.0032 15.32048247 11257



Live tracking and technical data element details for STARLINK-32532 (NORAD 62156). STARLINK-32532 can be tracked NOW for your location showing map with azimuth and elevation plus other details from your city location.







IsCatalogInMostPopularTable: catalog: 62156, numindb: 21
Update: records affected: 1



GetName: 62156 STARLINK-32532

Hit Count: updated at: Sun, 18 May 2025 23:50:07 GMT